Home > Weather > Halberstadt > Past weeks

Flag for Germany Weather for the Past 2 Weeks in Halberstadt, Saxony-Anhalt, Germany

Now
46 °F

Partly sunny.


Feels Like: 42 °F
Forecast: 33 / 61 °F
Wind: 8 mph from Northwest

Location: Braunschweig Wolfsburg

Current Time: May 4, 2016 at 10:52:00 AM

Latest Report: May 4, 2016 at 9:50 AM


Visibility: N/A

Pressure: 30.39 "Hg

Humidity: 82%

Dew Point: 41 °F

Location of HalberstadtLocation

Historic Weather in Halberstadt — Graph

°F

Halberstadt Temperature Yesterday

Maximum temperature yesterday: 57 °F (at 9:20 AM)
Minimum temperature yesterday: 45 °F (at 6:50 AM)
Average temperature yesterday: 52 °F

High & Low Weather Summary for the Past Weeks

 TemperatureHumidityPressure
High68 °F (May 2, 4:20 PM)100% (Apr 22, 7:50 AM)30.42 "Hg (Apr 22, 7:50 AM)
Low32 °F (Apr 21, 6:50 AM)29% (Apr 21, 4:20 PM)29.45 "Hg (Apr 26, 6:50 AM)
Average48 °F64%29.99 "Hg
* Reported Apr 19 9:50 AM — May 4 9:20 AM, Halberstadt, Weather by CustomWeather, © 2016

Note: Actual official high and low records may vary slightly from our data, if they occured in-between our weather recording intervals... More about our weather records

Advertising

Halberstadt Weather History for the Previous 24 Hours

Scroll right to see more
 ConditionsComfort  
Time TempWeatherWind HumidityBarometerVisibility
9:20 AM
Wed, May 4
46 °FPartly sunny.7 mph82%30.39 "HgN/A
8:50 AM45 °FPartly sunny.6 mph87%30.39 "HgN/A
8:20 AM43 °FPartly sunny.5 mph93%30.39 "HgN/A
7:50 AM41 °FPartly sunny.3 mph93%30.39 "HgN/A
7:20 AM39 °FPartly sunny.2 mph100%30.36 "HgN/A
6:50 AM37 °FPartly sunny.No wind100%30.36 "HgN/A
6:20 AM37 °FPassing clouds.No wind93%30.36 "HgN/A
5:50 AM37 °FPartly cloudy.No wind93%30.33 "HgN/A
5:20 AM34 °FPassing clouds.3 mph93%30.33 "HgN/A
4:50 AM36 °FPassing clouds.3 mph93%30.33 "HgN/A
9:50 PM
Tue, May 3
48 °FPassing clouds.8 mph66%30.24 "HgN/A
7:50 PM52 °FPassing clouds.7 mph72%30.18 "HgN/A
7:20 PM52 °FPassing clouds.7 mph77%30.18 "HgN/A
6:50 PM50 °FSunny.6 mph82%30.15 "Hg10 mi
6:20 PM50 °FMore clouds than sun.8 mph82%30.15 "HgN/A
5:50 PM52 °FBroken clouds.7 mph77%30.15 "HgN/A
5:20 PM52 °FPartly sunny.7 mph77%30.15 "HgN/A
4:50 PM50 °FMostly cloudy.5 mph88%30.15 "HgN/A
4:20 PM50 °FOvercast.6 mph88%30.15 "HgN/A
3:50 PM48 °FLight rain. Mostly cloudy.6 mph94%30.15 "HgN/A
3:20 PM48 °FLight rain. More clouds than sun.7 mph94%30.15 "HgN/A
2:50 PM48 °FLight rain. Cloudy.8 mph87%30.12 "HgN/A
2:20 PM48 °FLight rain. Cloudy.12 mph94%30.12 "HgN/A
1:20 PM50 °FMore clouds than sun.10 mph82%30.12 "HgN/A
12:50 PM50 °FMostly cloudy.15 mph82%30.09 "HgN/A
12:20 PM52 °FDrizzle. Mostly cloudy.14 mph82%30.09 "HgN/A
11:50 AM54 °FMore clouds than sun.13 mph77%30.07 "HgN/A
11:20 AM57 °FMore clouds than sun.7 mph67%30.07 "HgN/A
10:50 AM57 °FPartly sunny.8 mph67%30.07 "HgN/A
10:20 AM57 °FPassing clouds.8 mph67%30.04 "HgN/A
Weather by CustomWeather, © 2016

See weather overviewHow to use our weather pages